| time (UTC) | temp F | wind direction | speed MPH | gust MPH | rain 1hr in | rain 24hr in | rain mn in | humidity % | barometer mb |
| 20260906030853 | 75 | 149 | 0.0 | 0.0 | 0.00 | 0.00 | 0.00 | 90 | 1015.8 |
| 20260906030812 | 75 | 149 | 0.0 | 0.0 | 0.00 | 0.00 | 0.00 | 90 | 1015.8 |
| 20260906030622 | 75 | 149 | 0.0 | 0.0 | 0.00 | 0.00 | 0.00 | 90 | 1015.8 |
| 20260906030304 | 75 | 149 | 0.0 | 0.0 | 0.00 | 0.00 | 0.00 | 90 | 1015.8 |
| 20260906025803 | 75 | 149 | 0.0 | 0.0 | 0.00 | 0.00 | 0.00 | 90 | 1015.9 |
| 20260906024301 | 75 | 149 | 0.0 | 0.0 | 0.00 | 0.00 | 0.00 | 89 | 1015.9 |
| 20260906022801 | 75 | 149 | 0.0 | 0.0 | 0.00 | 0.00 | 0.00 | 88 | 1015.8 |
| 20260906022302 | 75 | 149 | 0.0 | 0.0 | 0.00 | 0.00 | 0.00 | 88 | 1015.6 |
| 20260906021801 | 76 | 149 | 0.0 | 0.0 | 0.00 | 0.00 | 0.00 | 88 | 1015.6 |
| 20260906020742 | 76 | 149 | 0.0 | 0.0 | 0.00 | 0.00 | 0.00 | 87 | 1015.1 |
| 20260906020344 | 76 | 149 | 0.0 | 0.0 | 0.00 | 0.00 | 0.00 | 87 | 1015.1 |
| 20260906020301 | 76 | 149 | 0.0 | 0.0 | 0.00 | 0.00 | 0.00 | 87 | 1015.1 |
| 20260906015714 | 76 | 171 | 0.0 | 0.0 | 0.00 | 0.00 | 0.00 | 87 | 1014.7 |
| 20260906015325 | 76 | 171 | 0.0 | 0.0 | 0.00 | 0.00 | 0.00 | 87 | 1014.7 |
| 20260906014558 | 77 | 147 | 0.0 | 3.0 | 0.00 | 0.00 | 0.00 | 86 | 1014.5 |
| 20260906014301 | 77 | 147 | 0.0 | 3.0 | 0.00 | 0.00 | 0.00 | 86 | 1014.5 |
| 20260906013556 | 77 | 191 | 0.0 | 5.0 | 0.00 | 0.00 | 0.00 | 85 | 1014.2 |
| 20260906013401 | 77 | 191 | 0.0 | 5.0 | 0.00 | 0.00 | 0.00 | 85 | 1014.2 |
| 20260906013307 | 77 | 191 | 0.0 | 5.0 | 0.00 | 0.00 | 0.00 | 85 | 1014.2 |
| 20260906013122 | 77 | 172 | 6.0 | 6.0 | 0.00 | 0.00 | 0.00 | 85 | 1014.1 |
| 20260906012801 | 77 | 172 | 6.0 | 6.0 | 0.00 | 0.00 | 0.00 | 85 | 1014.1 |
| 20260906012116 | 77 | 126 | 0.0 | 0.0 | 0.00 | 0.00 | 0.00 | 84 | 1013.9 |
| 20260906011801 | 77 | 126 | 0.0 | 0.0 | 0.00 | 0.00 | 0.00 | 84 | 1013.9 |
| 20260906011302 | 78 | 126 | 0.0 | 0.0 | 0.00 | 0.00 | 0.00 | 83 | 1013.7 |
| 20260906011037 | 78 | 126 | 0.0 | 2.0 | 0.00 | 0.00 | 0.00 | 82 | 1013.7 |
| 20260906010801 | 78 | 126 | 0.0 | 2.0 | 0.00 | 0.00 | 0.00 | 82 | 1013.7 |
| 20260906010649 | 78 | 210 | 2.0 | 4.0 | 0.00 | 0.00 | 0.00 | 82 | 1013.6 |
| 20260906010552 | 78 | 210 | 2.0 | 4.0 | 0.00 | 0.00 | 0.00 | 82 | 1013.6 |
| 20260906010333 | 78 | 210 | 2.0 | 4.0 | 0.00 | 0.00 | 0.00 | 82 | 1013.6 |
| 20260906010301 | 78 | 210 | 2.0 | 4.0 | 0.00 | 0.00 | 0.00 | 82 | 1013.6 |
| 20260906005801 | 78 | 168 | 0.0 | 7.0 | 0.00 | 0.00 | 0.00 | 81 | 1013.6 |
| 20260906005518 | 79 | 123 | 0.0 | 6.0 | 0.00 | 0.00 | 0.00 | 81 | 1013.6 |
| 20260906005338 | 79 | 123 | 0.0 | 6.0 | 0.00 | 0.00 | 0.00 | 81 | 1013.6 |
| 20260906005301 | 79 | 123 | 0.0 | 6.0 | 0.00 | 0.00 | 0.00 | 81 | 1013.6 |
| 20260906004056 | 79 | 118 | 3.0 | 8.0 | 0.00 | 0.00 | 0.00 | 79 | 1013.4 |
| 20260906003813 | 79 | 118 | 3.0 | 8.0 | 0.00 | 0.00 | 0.00 | 79 | 1013.4 |
| 20260906003638 | 80 | 187 | 5.0 | 11.0 | 0.00 | 0.00 | 0.00 | 78 | 1013.5 |
| 20260906003301 | 80 | 187 | 5.0 | 11.0 | 0.00 | 0.00 | 0.00 | 78 | 1013.5 |
| 20260906002801 | 80 | 165 | 0.0 | 0.0 | 0.00 | 0.00 | 0.00 | 78 | 1013.5 |
| 20260906002305 | 80 | 165 | 0.0 | 9.0 | 0.00 | 0.00 | 0.00 | 78 | 1013.4 |
| 20260906002040 | 80 | 172 | 0.0 | 3.0 | 0.00 | 0.00 | 0.00 | 77 | 1013.4 |
| 20260906001831 | 80 | 172 | 0.0 | 3.0 | 0.00 | 0.00 | 0.00 | 77 | 1013.4 |
| 20260906001801 | 80 | 172 | 0.0 | 3.0 | 0.00 | 0.00 | 0.00 | 77 | 1013.4 |
| 20260906001307 | 80 | 123 | 0.0 | 6.0 | 0.00 | 0.00 | 0.00 | 77 | 1013.3 |
| 20260906000538 | 81 | 137 | 3.0 | 7.0 | 0.00 | 0.00 | 0.00 | 76 | 1013.2 |
| 20260906000303 | 81 | 137 | 3.0 | 7.0 | 0.00 | 0.00 | 0.00 | 76 | 1013.2 |
| 20260905235539 | 81 | 170 | 0.0 | 4.0 | 0.00 | 0.00 | 0.00 | 75 | 1013.1 |
| 20260905235334 | 81 | 170 | 0.0 | 4.0 | 0.00 | 0.00 | 0.00 | 75 | 1013.1 |
| 20260905235306 | 81 | 170 | 0.0 | 4.0 | 0.00 | 0.00 | 0.00 | 75 | 1013.1 |
| 20260905234801 | 81 | 185 | 0.0 | 8.0 | 0.00 | 0.00 | 0.00 | 74 | 1013.2 |
| 20260905233114 | 83 | 82 | 0.0 | 0.0 | 0.00 | 0.00 | 0.00 | 70 | 1013.1 |
| 20260905232801 | 83 | 82 | 0.0 | 0.0 | 0.00 | 0.00 | 0.00 | 70 | 1013.1 |
| 20260905232305 | 83 | 82 | 0.0 | 4.0 | 0.00 | 0.00 | 0.00 | 70 | 1013.0 |
| 20260905231801 | 83 | 67 | 0.0 | 0.0 | 0.00 | 0.00 | 0.00 | 70 | 1012.8 |
| 20260905230812 | 83 | 77 | 1.0 | 7.0 | 0.00 | 0.00 | 0.00 | 68 | 1012.8 |
| 20260905225305 | 83 | 40 | 0.0 | 6.0 | 0.00 | 0.00 | 0.00 | 69 | 1012.7 |
| 20260905224801 | 83 | 102 | 4.0 | 7.0 | 0.00 | 0.00 | 0.00 | 69 | 1012.5 |
| 20260905223812 | 83 | 33 | 5.0 | 7.0 | 0.00 | 0.00 | 0.00 | 70 | 1012.5 |
| 20260905223301 | 82 | 88 | 4.0 | 6.0 | 0.00 | 0.00 | 0.00 | 70 | 1012.4 |
| 20260905223202 | 82 | 33 | 9.0 | 11.0 | 0.00 | 0.00 | 0.00 | 70 | 1012.3 |
| 20260905222801 | 82 | 33 | 9.0 | 11.0 | 0.00 | 0.00 | 0.00 | 70 | 1012.3 |
| 20260905222333 | 82 | 102 | 5.0 | 7.0 | 0.00 | 0.00 | 0.00 | 71 | 1012.4 |
| 20260905222305 | 82 | 102 | 5.0 | 7.0 | 0.00 | 0.00 | 0.00 | 71 | 1012.4 |
| 20260905221836 | 82 | 57 | 6.0 | 11.0 | 0.00 | 0.00 | 0.00 | 71 | 1012.4 |
| 20260905221801 | 82 | 57 | 6.0 | 11.0 | 0.00 | 0.00 | 0.00 | 71 | 1012.4 |
| 20260905221333 | 82 | 60 | 0.0 | 12.0 | 0.00 | 0.00 | 0.00 | 72 | 1012.4 |
| 20260905221301 | 82 | 60 | 0.0 | 12.0 | 0.00 | 0.00 | 0.00 | 72 | 1012.4 |
| 20260905220817 | 82 | 132 | 8.0 | 10.0 | 0.00 | 0.00 | 0.00 | 71 | 1012.5 |
| 20260905220301 | 82 | 102 | 0.0 | 8.0 | 0.00 | 0.00 | 0.00 | 73 | 1012.6 |
| 20260905215801 | 81 | 90 | 1.0 | 9.0 | 0.00 | 0.00 | 0.00 | 73 | 1012.6 |
| 20260905214856 | 81 | 15 | 3.0 | 8.0 | 0.00 | 0.00 | 0.00 | 73 | 1012.9 |
| 20260905214803 | 81 | 84 | 0.0 | 9.0 | 0.00 | 0.00 | 0.00 | 73 | 1012.8 |
| 20260905214301 | 81 | 15 | 3.0 | 8.0 | 0.00 | 0.00 | 0.00 | 73 | 1012.9 |
| 20260905213839 | 81 | 97 | 5.0 | 9.0 | 0.00 | 0.00 | 0.00 | 72 | 1012.8 |
| 20260905213804 | 81 | 97 | 5.0 | 9.0 | 0.00 | 0.00 | 0.00 | 72 | 1012.8 |
| 20260905213301 | 81 | 95 | 5.0 | 10.0 | 0.00 | 0.00 | 0.00 | 71 | 1013.0 |
| 20260905213005 | 83 | 52 | 9.0 | 9.0 | 0.00 | 0.00 | 0.00 | 69 | 1013.0 |
| 20260905212801 | 82 | 60 | 3.0 | 7.0 | 0.00 | 0.00 | 0.00 | 71 | 1013.0 |
| 20260905211801 | 83 | 52 | 9.0 | 9.0 | 0.00 | 0.00 | 0.00 | 69 | 1013.0 |
| 20260905211302 | 83 | 99 | 3.0 | 5.0 | 0.00 | 0.00 | 0.00 | 70 | 1013.1 |
| 20260905210801 | 82 | 21 | 5.0 | 11.0 | 0.00 | 0.00 | 0.00 | 70 | 1013.1 |
| 20260905210301 | 82 | 90 | 6.0 | 10.0 | 0.00 | 0.00 | 0.00 | 70 | 1013.0 |
| 20260905205801 | 82 | 91 | 3.0 | 12.0 | 0.00 | 0.00 | 0.00 | 71 | 1013.0 |
| 20260905205301 | 82 | 21 | 3.0 | 9.0 | 0.00 | 0.00 | 0.00 | 73 | 1012.9 |
| 20260905204806 | 82 | 63 | 10.0 | 16.0 | 0.00 | 0.00 | 0.00 | 72 | 1012.9 |
| 20260905202338 | 81 | 113 | 9.0 | 12.0 | 0.00 | 0.00 | 0.00 | 77 | 1013.3 |
| 20260905202301 | 81 | 113 | 9.0 | 12.0 | 0.00 | 0.00 | 0.00 | 77 | 1013.3 |
| 20260905201801 | 81 | 71 | 5.0 | 11.0 | 0.00 | 0.00 | 0.00 | 78 | 1013.4 |
| 20260905200831 | 80 | 26 | 8.0 | 12.0 | 0.00 | 0.00 | 0.00 | 79 | 1013.7 |
| 20260905200801 | 80 | 26 | 8.0 | 12.0 | 0.00 | 0.00 | 0.00 | 79 | 1013.7 |
| 20260905195819 | 81 | 57 | 6.0 | 12.0 | 0.00 | 0.00 | 0.00 | 79 | 1014.1 |
| 20260905194801 | 80 | 68 | 13.0 | 13.0 | 0.00 | 0.00 | 0.00 | 78 | 1014.1 |
| 20260905193804 | 80 | 45 | 6.0 | 10.0 | 0.00 | 0.00 | 0.00 | 80 | 1014.2 |
| 20260905193654 | 80 | 101 | 6.0 | 7.0 | 0.00 | 0.00 | 0.00 | 80 | 1014.3 |
| 20260905193301 | 80 | 101 | 6.0 | 7.0 | 0.00 | 0.00 | 0.00 | 80 | 1014.3 |
| 20260905192804 | 80 | 47 | 6.0 | 6.0 | 0.00 | 0.00 | 0.00 | 81 | 1014.5 |
| 20260905192305 | 80 | 105 | 4.0 | 5.0 | 0.00 | 0.00 | 0.00 | 81 | 1014.5 |
| 20260905192226 | 80 | 74 | 0.0 | 5.0 | 0.00 | 0.00 | 0.00 | 82 | 1014.5 |
| 20260905191801 | 80 | 74 | 0.0 | 5.0 | 0.00 | 0.00 | 0.00 | 82 | 1014.5 |
| 20260905191301 | 80 | 104 | 4.0 | 4.0 | 0.00 | 0.00 | 0.00 | 82 | 1014.6 |
| 20260905190801 | 79 | 18 | 0.0 | 0.0 | 0.00 | 0.00 | 0.00 | 84 | 1014.6 |
| 20260905190303 | 79 | 18 | 0.0 | 0.0 | 0.00 | 0.00 | 0.00 | 83 | 1014.8 |
| 20260905190205 | 79 | 18 | 0.0 | 0.0 | 0.00 | 0.00 | 0.00 | 84 | 1014.7 |
| 20260905185800 | 79 | 18 | 0.0 | 0.0 | 0.00 | 0.00 | 0.00 | 84 | 1014.7 |
| 20260905185305 | 78 | 18 | 0.0 | 0.0 | 0.00 | 0.00 | 0.00 | 84 | 1014.8 |
| 20260905183801 | 78 | 18 | 0.0 | 0.0 | 0.00 | 0.00 | 0.00 | 85 | 1014.8 |
| 20260905183310 | 78 | 358 | 0.0 | 4.0 | 0.00 | 0.00 | 0.00 | 86 | 1015.0 |
| 20260905182833 | 78 | 358 | 0.0 | 4.0 | 0.00 | 0.00 | 0.00 | 86 | 1015.0 |
| 20260905182801 | 78 | 358 | 0.0 | 4.0 | 0.00 | 0.00 | 0.00 | 86 | 1015.0 |
| 20260905182301 | 78 | 32 | 0.0 | 5.0 | 0.00 | 0.00 | 0.00 | 85 | 1015.1 |
| 20260905182156 | 78 | 132 | 0.0 | 0.0 | 0.00 | 0.00 | 0.00 | 86 | 1015.0 |
| 20260905181838 | 78 | 132 | 0.0 | 0.0 | 0.00 | 0.00 | 0.00 | 86 | 1015.0 |
| 20260905181801 | 78 | 132 | 0.0 | 0.0 | 0.00 | 0.00 | 0.00 | 86 | 1015.0 |
| 20260905181300 | 77 | 132 | 0.0 | 0.0 | 0.00 | 0.00 | 0.00 | 86 | 1015.0 |
| 20260905180820 | 77 | 168 | 3.0 | 5.0 | 0.00 | 0.00 | 0.00 | 86 | 1015.2 |
| 20260905180559 | 77 | 181 | 0.0 | 4.0 | 0.00 | 0.00 | 0.00 | 87 | 1015.2 |
| 20260905180300 | 77 | 181 | 0.0 | 4.0 | 0.00 | 0.00 | 0.00 | 87 | 1015.2 |
| 20260905180134 | 77 | 177 | 0.0 | 6.0 | 0.00 | 0.00 | 0.00 | 88 | 1015.3 |
| 20260905175800 | 77 | 177 | 0.0 | 6.0 | 0.00 | 0.00 | 0.00 | 88 | 1015.3 |
| 20260905175607 | 77 | 175 | 4.0 | 4.0 | 0.00 | 0.00 | 0.00 | 88 | 1015.4 |
| 20260905175332 | 77 | 175 | 4.0 | 4.0 | 0.00 | 0.00 | 0.00 | 88 | 1015.4 |
| 20260905175309 | 77 | 22 | 0.0 | 0.0 | 0.00 | 0.00 | 0.00 | 88 | 1015.4 |
| 20260905175301 | 77 | 175 | 4.0 | 4.0 | 0.00 | 0.00 | 0.00 | 88 | 1015.4 |
| 20260905174833 | 77 | 22 | 0.0 | 0.0 | 0.00 | 0.00 | 0.00 | 88 | 1015.4 |
| 20260905174802 | 77 | 22 | 0.0 | 0.0 | 0.00 | 0.00 | 0.00 | 88 | 1015.4 |
| 20260905174502 | 76 | 90 | 4.0 | 5.0 | 0.00 | 0.00 | 0.00 | 89 | 1015.5 |
| 20260905174305 | 76 | 90 | 4.0 | 5.0 | 0.00 | 0.00 | 0.00 | 89 | 1015.5 |
| 20260905173835 | 76 | 198 | 2.0 | 4.0 | 0.00 | 0.00 | 0.00 | 89 | 1015.6 |
| 20260905173645 | 76 | 174 | 7.0 | 8.0 | 0.00 | 0.00 | 0.00 | 88 | 1015.9 |
| 20260905173317 | 76 | 205 | 3.0 | 5.0 | 0.00 | 0.00 | 0.00 | 89 | 1015.8 |
| 20260905173300 | 76 | 174 | 7.0 | 8.0 | 0.00 | 0.00 | 0.00 | 88 | 1015.9 |
| 20260905172801 | 76 | 205 | 3.0 | 5.0 | 0.00 | 0.00 | 0.00 | 89 | 1015.8 |
| 20260905172345 | 75 | 161 | 0.0 | 4.0 | 0.00 | 0.00 | 0.00 | 92 | 1015.8 |
| 20260905171800 | 75 | 161 | 0.0 | 4.0 | 0.00 | 0.00 | 0.00 | 92 | 1015.8 |
| 20260905171632 | 75 | 60 | 0.0 | 3.0 | 0.00 | 0.00 | 0.00 | 93 | 1015.9 |
| 20260905171301 | 75 | 60 | 0.0 | 3.0 | 0.00 | 0.00 | 0.00 | 93 | 1015.9 |
| 20260905164300 | 73 | 46 | 5.0 | 9.0 | 0.00 | 0.00 | 0.00 | 96 | 1015.9 |
| 20260905163829 | 73 | 94 | 3.0 | 4.0 | 0.00 | 0.00 | 0.00 | 97 | 1016.0 |
| 20260905163418 | 73 | 52 | 6.0 | 6.0 | 0.00 | 0.00 | 0.00 | 97 | 1016.0 |
| 20260905163301 | 73 | 94 | 3.0 | 4.0 | 0.00 | 0.00 | 0.00 | 97 | 1016.0 |
| 20260905162800 | 73 | 52 | 6.0 | 6.0 | 0.00 | 0.00 | 0.00 | 97 | 1016.0 |
| 20260905161800 | 73 | 47 | 2.0 | 6.0 | 0.00 | 0.00 | 0.00 | 99 | 1015.8 |
| 20260905161300 | 73 | 33 | 0.0 | 2.0 | 0.00 | 0.00 | 0.00 | 99 | 1015.8 |
| 20260905155305 | 72 | 67 | 4.0 | 4.0 | 0.00 | 0.00 | 0.00 | 99 | 1015.9 |
| 20260905154300 | 72 | 25 | 4.0 | 5.0 | 0.00 | 0.00 | 0.00 | 99 | 1015.8 |
| 20260905153802 | 71 | 33 | 0.0 | 7.0 | 0.00 | 0.00 | 0.00 | 99 | 1015.9 |
| 20260905153305 | 71 | 32 | 0.0 | 4.0 | 0.00 | 0.00 | 0.00 | 99 | 1015.8 |
| 20260905152350 | 70 | 11 | 0.0 | 3.0 | 0.00 | 0.00 | 0.00 | 99 | 1016.0 |
| 20260905151804 | 70 | 11 | 0.0 | 3.0 | 0.00 | 0.00 | 0.00 | 99 | 1016.0 |
| 20260905151333 | 70 | 334 | 0.0 | 3.0 | 0.00 | 0.00 | 0.00 | 99 | 1016.0 |
| 20260905151300 | 70 | 334 | 0.0 | 3.0 | 0.00 | 0.00 | 0.00 | 99 | 1016.0 |
| 20260905150814 | 70 | 63 | 4.0 | 7.0 | 0.00 | 0.00 | 0.00 | 99 | 1015.8 |
| 20260905150410 | 70 | 116 | 0.0 | 5.0 | 0.00 | 0.00 | 0.00 | 99 | 1015.4 |
| 20260905145800 | 70 | 116 | 0.0 | 5.0 | 0.00 | 0.00 | 0.00 | 99 | 1015.4 |
| 20260905145446 | 70 | 94 | 5.0 | 7.0 | 0.00 | 0.00 | 0.00 | 99 | 1015.4 |
| 20260905145344 | 70 | 94 | 5.0 | 7.0 | 0.00 | 0.00 | 0.00 | 99 | 1015.4 |
| 20260905145301 | 70 | 94 | 5.0 | 7.0 | 0.00 | 0.00 | 0.00 | 99 | 1015.4 |
| 20260905144843 | 69 | 5 | 6.0 | 8.0 | 0.00 | 0.00 | 0.00 | 99 | 1015.3 |
| 20260905144800 | 69 | 5 | 6.0 | 8.0 | 0.00 | 0.00 | 0.00 | 99 | 1015.3 |
| 20260905143456 | 69 | 33 | 0.0 | 7.0 | 0.00 | 0.00 | 0.00 | 99 | 1015.3 |
| 20260905143301 | 69 | 33 | 0.0 | 7.0 | 0.00 | 0.00 | 0.00 | 99 | 1015.3 |
| 20260905143135 | 69 | 59 | 0.0 | 5.0 | 0.00 | 0.00 | 0.00 | 99 | 1015.3 |
| 20260905142800 | 69 | 75 | 3.0 | 7.0 | 0.00 | 0.00 | 0.00 | 99 | 1015.4 |
| 20260905142420 | 69 | 59 | 0.0 | 5.0 | 0.00 | 0.00 | 0.00 | 99 | 1015.3 |
| 20260905142305 | 69 | 59 | 0.0 | 5.0 | 0.00 | 0.00 | 0.00 | 99 | 1015.3 |
| 20260905141803 | 69 | 53 | 3.0 | 6.0 | 0.00 | 0.00 | 0.00 | 99 | 1015.4 |
| 20260905141350 | 69 | 73 | 0.0 | 4.0 | 0.00 | 0.00 | 0.00 | 99 | 1015.3 |
| 20260905141300 | 69 | 73 | 0.0 | 4.0 | 0.00 | 0.00 | 0.00 | 99 | 1015.3 |
| 20260905135335 | 69 | 11 | 2.0 | 4.0 | 0.00 | 0.00 | 0.00 | 99 | 1015.4 |
| 20260905135301 | 69 | 11 | 2.0 | 4.0 | 0.00 | 0.00 | 0.00 | 99 | 1015.4 |
| 20260905134345 | 69 | 23 | 3.0 | 6.0 | 0.00 | 0.00 | 0.00 | 99 | 1015.4 |
| 20260905134303 | 69 | 23 | 3.0 | 6.0 | 0.00 | 0.00 | 0.00 | 99 | 1015.4 |
| 20260905133343 | 68 | 56 | 5.0 | 5.0 | 0.00 | 0.00 | 0.00 | 99 | 1015.5 |
| 20260905133301 | 68 | 56 | 5.0 | 5.0 | 0.00 | 0.00 | 0.00 | 99 | 1015.5 |
| 20260905133213 | 69 | 46 | 0.0 | 0.0 | 0.00 | 0.00 | 0.00 | 99 | 1015.6 |
| 20260905132802 | 69 | 46 | 0.0 | 0.0 | 0.00 | 0.00 | 0.00 | 99 | 1015.6 |
| 20260905132441 | 69 | 46 | 0.0 | 0.0 | 0.00 | 0.00 | 0.00 | 99 | 1015.5 |
| 20260905132334 | 69 | 46 | 0.0 | 0.0 | 0.00 | 0.00 | 0.00 | 99 | 1015.5 |
| 20260905132305 | 69 | 46 | 0.0 | 0.0 | 0.00 | 0.00 | 0.00 | 99 | 1015.5 |
| 20260905131540 | 68 | 46 | 0.0 | 0.0 | 0.00 | 0.00 | 0.00 | 99 | 1015.3 |
| 20260905131348 | 68 | 46 | 0.0 | 0.0 | 0.00 | 0.00 | 0.00 | 99 | 1015.2 |
| 20260905131336 | 68 | 46 | 0.0 | 0.0 | 0.00 | 0.00 | 0.00 | 99 | 1015.3 |
| 20260905131300 | 68 | 46 | 0.0 | 0.0 | 0.00 | 0.00 | 0.00 | 99 | 1015.3 |
| 20260905131158 | 68 | 46 | 0.0 | 0.0 | 0.00 | 0.00 | 0.00 | 99 | 1015.2 |
| 20260905130800 | 68 | 46 | 0.0 | 0.0 | 0.00 | 0.00 | 0.00 | 99 | 1015.2 |
| 20260905125839 | 68 | 46 | 0.0 | 0.0 | 0.00 | 0.00 | 0.00 | 99 | 1014.8 |
| 20260905125800 | 68 | 46 | 0.0 | 0.0 | 0.00 | 0.00 | 0.00 | 99 | 1014.8 |
| 20260905125352 | 68 | 46 | 0.0 | 0.0 | 0.00 | 0.00 | 0.00 | 99 | 1014.7 |
| 20260905125306 | 68 | 46 | 0.0 | 0.0 | 0.00 | 0.00 | 0.00 | 99 | 1014.7 |
| 20260905124800 | 68 | 46 | 0.0 | 0.0 | 0.00 | 0.00 | 0.00 | 99 | 1014.5 |
| 20260905123802 | 68 | 46 | 0.0 | 0.0 | 0.00 | 0.00 | 0.00 | 99 | 1014.1 |
| 20260905123340 | 68 | 42 | 0.0 | 3.0 | 0.00 | 0.00 | 0.00 | 99 | 1013.9 |
| 20260905123300 | 68 | 42 | 0.0 | 3.0 | 0.00 | 0.00 | 0.00 | 99 | 1013.9 |
| 20260905122307 | 68 | 19 | 0.0 | 0.0 | 0.00 | 0.00 | 0.00 | 99 | 1013.7 |
| 20260905121332 | 68 | 71 | 5.0 | 5.0 | 0.00 | 0.00 | 0.00 | 99 | 1014.0 |
| 20260905121300 | 68 | 71 | 5.0 | 5.0 | 0.00 | 0.00 | 0.00 | 99 | 1014.0 |
| 20260905120544 | 68 | 4 | 0.0 | 0.0 | 0.00 | 0.00 | 0.00 | 99 | 1014.2 |
| 20260905120402 | 68 | 4 | 0.0 | 0.0 | 0.00 | 0.00 | 0.00 | 99 | 1014.2 |
| 20260905120301 | 68 | 4 | 0.0 | 0.0 | 0.00 | 0.00 | 0.00 | 99 | 1014.2 |
| 20260905120235 | 68 | 4 | 0.0 | 0.0 | 0.00 | 0.00 | 0.00 | 99 | 1014.2 |
| 20260905115921 | 68 | 4 | 0.0 | 0.0 | 0.00 | 0.00 | 0.00 | 99 | 1014.2 |
| 20260905115835 | 68 | 4 | 0.0 | 0.0 | 0.00 | 0.00 | 0.00 | 99 | 1014.2 |
| 20260905115802 | 68 | 4 | 0.0 | 0.0 | 0.00 | 0.00 | 0.00 | 99 | 1014.2 |
| 20260905114410 | 68 | 42 | 0.0 | 6.0 | 0.00 | 0.00 | 0.00 | 99 | 1014.2 |
| 20260905114300 | 68 | 42 | 0.0 | 6.0 | 0.00 | 0.00 | 0.00 | 99 | 1014.2 |
| 20260905113051 | 68 | 29 | 2.0 | 4.0 | 0.00 | 0.00 | 0.00 | 99 | 1013.9 |
| 20260905112913 | 68 | 29 | 2.0 | 4.0 | 0.00 | 0.00 | 0.00 | 99 | 1013.9 |
| 20260905112802 | 68 | 29 | 2.0 | 4.0 | 0.00 | 0.00 | 0.00 | 99 | 1013.9 |
| 20260905112305 | 68 | 60 | 2.0 | 8.0 | 0.00 | 0.00 | 0.00 | 99 | 1013.7 |
| 20260905111910 | 68 | 47 | 3.0 | 7.0 | 0.00 | 0.00 | 0.00 | 99 | 1013.7 |
| 20260905111800 | 68 | 47 | 3.0 | 7.0 | 0.00 | 0.00 | 0.00 | 99 | 1013.7 |
| 20260905111714 | 68 | 105 | 4.0 | 9.0 | 0.00 | 0.00 | 0.00 | 99 | 1013.8 |
| 20260905111400 | 68 | 105 | 4.0 | 9.0 | 0.00 | 0.00 | 0.00 | 99 | 1013.8 |
| 20260905111300 | 68 | 105 | 4.0 | 9.0 | 0.00 | 0.00 | 0.00 | 99 | 1013.8 |
| 20260905110751 | 68 | 68 | 0.0 | 5.0 | 0.00 | 0.00 | 0.00 | 99 | 1013.8 |
| 20260905110333 | 68 | 68 | 0.0 | 5.0 | 0.00 | 0.00 | 0.00 | 99 | 1013.8 |
| 20260905110301 | 68 | 68 | 0.0 | 5.0 | 0.00 | 0.00 | 0.00 | 99 | 1013.8 |
| 20260905104842 | 68 | 358 | 3.0 | 3.0 | 0.00 | 0.00 | 0.00 | 99 | 1013.8 |
| 20260905104802 | 68 | 358 | 3.0 | 3.0 | 0.00 | 0.00 | 0.00 | 99 | 1013.8 |
| 20260905104714 | 68 | 59 | 4.0 | 7.0 | 0.00 | 0.00 | 0.00 | 99 | 1013.7 |
| 20260905104300 | 68 | 59 | 4.0 | 7.0 | 0.00 | 0.00 | 0.00 | 99 | 1013.7 |
| 20260905103618 | 68 | 75 | 3.0 | 5.0 | 0.00 | 0.00 | 0.00 | 99 | 1013.7 |
| 20260905103340 | 68 | 75 | 3.0 | 5.0 | 0.00 | 0.00 | 0.00 | 99 | 1013.7 |
| 20260905103300 | 68 | 75 | 3.0 | 5.0 | 0.00 | 0.00 | 0.00 | 99 | 1013.7 |
| 20260905102804 | 68 | 84 | 4.0 | 8.0 | 0.00 | 0.00 | 0.00 | 99 | 1013.6 |
| 20260905102339 | 68 | 36 | 4.0 | 8.0 | 0.00 | 0.00 | 0.00 | 99 | 1013.5 |
| 20260905102301 | 68 | 36 | 4.0 | 8.0 | 0.00 | 0.00 | 0.00 | 99 | 1013.5 |
| 20260905102045 | 68 | 104 | 0.0 | 7.0 | 0.00 | 0.00 | 0.00 | 99 | 1013.5 |
| 20260905101857 | 68 | 104 | 0.0 | 7.0 | 0.00 | 0.00 | 0.00 | 99 | 1013.5 |
| 20260905101800 | 68 | 104 | 0.0 | 7.0 | 0.00 | 0.00 | 0.00 | 99 | 1013.5 |
| 20260905100804 | 68 | 358 | 4.0 | 9.0 | 0.00 | 0.00 | 0.00 | 99 | 1013.2 |
| 20260905100338 | 68 | 71 | 4.0 | 9.0 | 0.00 | 0.00 | 0.00 | 99 | 1013.3 |
| 20260905100300 | 68 | 71 | 4.0 | 9.0 | 0.00 | 0.00 | 0.00 | 99 | 1013.3 |
| 20260905100152 | 68 | 81 | 0.0 | 4.0 | 0.00 | 0.00 | 0.00 | 99 | 1013.6 |
| 20260905100144 | 68 | 84 | 4.0 | 8.0 | 0.00 | 0.00 | 0.00 | 99 | 1013.2 |
| 20260905095836 | 68 | 81 | 0.0 | 4.0 | 0.00 | 0.00 | 0.00 | 99 | 1013.6 |
| 20260905095800 | 68 | 81 | 0.0 | 4.0 | 0.00 | 0.00 | 0.00 | 99 | 1013.6 |
| 20260905095359 | 68 | 61 | 6.0 | 8.0 | 0.00 | 0.00 | 0.00 | 99 | 1013.5 |
| 20260905095305 | 68 | 61 | 6.0 | 8.0 | 0.00 | 0.00 | 0.00 | 99 | 1013.5 |
| 20260905094842 | 68 | 84 | 4.0 | 8.0 | 0.00 | 0.00 | 0.00 | 99 | 1013.2 |
| 20260905094800 | 68 | 84 | 4.0 | 8.0 | 0.00 | 0.00 | 0.00 | 99 | 1013.2 |
| 20260905093523 | 68 | 87 | 9.0 | 10.0 | 0.00 | 0.00 | 0.00 | 99 | 1012.8 |
| 20260905093409 | 68 | 87 | 9.0 | 10.0 | 0.00 | 0.00 | 0.00 | 99 | 1012.8 |
| 20260905093301 | 68 | 87 | 9.0 | 10.0 | 0.00 | 0.00 | 0.00 | 99 | 1012.8 |
| 20260905093245 | 68 | 77 | 5.0 | 10.0 | 0.00 | 0.00 | 0.00 | 99 | 1012.7 |
| 20260905092913 | 68 | 77 | 5.0 | 10.0 | 0.00 | 0.00 | 0.00 | 99 | 1012.7 |
| 20260905092800 | 68 | 77 | 5.0 | 10.0 | 0.00 | 0.00 | 0.00 | 99 | 1012.7 |
| 20260905092332 | 68 | 75 | 0.0 | 5.0 | 0.00 | 0.00 | 0.00 | 99 | 1012.8 |
| 20260905092301 | 68 | 75 | 0.0 | 5.0 | 0.00 | 0.00 | 0.00 | 99 | 1012.8 |
| 20260905092153 | 68 | 32 | 0.0 | 3.0 | 0.00 | 0.00 | 0.00 | 99 | 1012.8 |
| 20260905091851 | 68 | 32 | 0.0 | 3.0 | 0.00 | 0.00 | 0.00 | 99 | 1012.8 |
| 20260905091803 | 68 | 32 | 0.0 | 3.0 | 0.00 | 0.00 | 0.00 | 99 | 1012.8 |
| 20260905091630 | 68 | 82 | 3.0 | 4.0 | 0.00 | 0.00 | 0.00 | 99 | 1012.9 |
| 20260905091301 | 68 | 82 | 3.0 | 4.0 | 0.00 | 0.00 | 0.00 | 99 | 1012.9 |
| 20260905091217 | 68 | 60 | 0.0 | 7.0 | 0.00 | 0.00 | 0.00 | 99 | 1013.0 |
| 20260905090807 | 68 | 60 | 0.0 | 7.0 | 0.00 | 0.00 | 0.00 | 99 | 1013.0 |
| 20260905090413 | 68 | 23 | 0.0 | 7.0 | 0.00 | 0.00 | 0.00 | 99 | 1013.1 |
| 20260905090332 | 68 | 23 | 0.0 | 7.0 | 0.00 | 0.00 | 0.00 | 99 | 1013.1 |
| 20260905090301 | 68 | 23 | 0.0 | 7.0 | 0.00 | 0.00 | 0.00 | 99 | 1013.1 |
| 20260905085539 | 68 | 85 | 0.0 | 4.0 | 0.00 | 0.00 | 0.00 | 99 | 1013.4 |
| 20260905085453 | 68 | 85 | 0.0 | 4.0 | 0.00 | 0.00 | 0.00 | 99 | 1013.4 |
| 20260905085336 | 68 | 85 | 0.0 | 4.0 | 0.00 | 0.00 | 0.00 | 99 | 1013.4 |
| 20260905085301 | 68 | 85 | 0.0 | 4.0 | 0.00 | 0.00 | 0.00 | 99 | 1013.4 |
| 20260905084834 | 68 | 54 | 0.0 | 6.0 | 0.00 | 0.00 | 0.00 | 99 | 1013.5 |
| 20260905084800 | 68 | 54 | 0.0 | 6.0 | 0.00 | 0.00 | 0.00 | 99 | 1013.5 |
| 20260905084300 | 68 | 1 | 0.0 | 0.0 | 0.00 | 0.00 | 0.00 | 99 | 1013.4 |
| 20260905083818 | 68 | 25 | 0.0 | 6.0 | 0.00 | 0.00 | 0.00 | 99 | 1013.2 |
| 20260905083730 | 68 | 25 | 0.0 | 6.0 | 0.00 | 0.00 | 0.00 | 99 | 1013.2 |
| 20260905083345 | 68 | 25 | 0.0 | 6.0 | 0.00 | 0.00 | 0.00 | 99 | 1013.2 |
| 20260905083301 | 68 | 25 | 0.0 | 6.0 | 0.00 | 0.00 | 0.00 | 99 | 1013.2 |
| 20260905081800 | 67 | 85 | 6.0 | 7.0 | 0.00 | 0.00 | 0.00 | 99 | 1013.2 |
| 20260905081636 | 67 | 42 | 4.0 | 6.0 | 0.00 | 0.00 | 0.00 | 99 | 1013.2 |
| 20260905081402 | 67 | 42 | 4.0 | 6.0 | 0.00 | 0.00 | 0.00 | 99 | 1013.2 |
| 20260905081302 | 67 | 42 | 4.0 | 6.0 | 0.00 | 0.00 | 0.00 | 99 | 1013.2 |
| 20260905080800 | 67 | 21 | 6.0 | 7.0 | 0.00 | 0.00 | 0.00 | 99 | 1013.3 |
| 20260905075210 | 68 | 66 | 2.0 | 7.0 | 0.00 | 0.00 | 0.00 | 99 | 1013.5 |
| 20260905073338 | 68 | 66 | 2.0 | 7.0 | 0.00 | 0.00 | 0.00 | 99 | 1013.5 |
| 20260905073300 | 68 | 66 | 2.0 | 7.0 | 0.00 | 0.00 | 0.00 | 99 | 1013.5 |
| 20260905071832 | 68 | 33 | 0.0 | 7.0 | 0.00 | 0.00 | 0.00 | 99 | 1013.4 |
| 20260905071800 | 68 | 33 | 0.0 | 7.0 | 0.00 | 0.00 | 0.00 | 99 | 1013.4 |
| 20260905071117 | 68 | 61 | 2.0 | 6.0 | 0.00 | 0.00 | 0.00 | 99 | 1013.4 |
| 20260905070841 | 68 | 61 | 2.0 | 6.0 | 0.00 | 0.00 | 0.00 | 99 | 1013.4 |
| 20260905070800 | 68 | 61 | 2.0 | 6.0 | 0.00 | 0.00 | 0.00 | 99 | 1013.4 |
| 20260905070707 | 68 | 59 | 0.0 | 5.0 | 0.00 | 0.00 | 0.00 | 99 | 1013.6 |
| 20260905070338 | 68 | 59 | 0.0 | 5.0 | 0.00 | 0.00 | 0.00 | 99 | 1013.6 |
| 20260905070300 | 68 | 59 | 0.0 | 5.0 | 0.00 | 0.00 | 0.00 | 99 | 1013.6 |
| 20260905064650 | 69 | 33 | 3.0 | 6.0 | 0.00 | 0.00 | 0.00 | 98 | 1013.5 |
| 20260905064335 | 69 | 33 | 3.0 | 6.0 | 0.00 | 0.00 | 0.00 | 98 | 1013.5 |
| 20260905064300 | 69 | 33 | 3.0 | 6.0 | 0.00 | 0.00 | 0.00 | 98 | 1013.5 |
| 20260905063305 | 69 | 28 | 0.0 | 0.0 | 0.00 | 0.00 | 0.00 | 97 | 1013.4 |
| 20260905062619 | 69 | 28 | 0.0 | 2.0 | 0.00 | 0.00 | 0.00 | 96 | 1013.4 |
| 20260905062403 | 69 | 28 | 0.0 | 2.0 | 0.00 | 0.00 | 0.00 | 96 | 1013.4 |
| 20260905062301 | 69 | 28 | 0.0 | 2.0 | 0.00 | 0.00 | 0.00 | 96 | 1013.4 |
| 20260905061800 | 69 | 355 | 0.0 | 0.0 | 0.00 | 0.00 | 0.00 | 96 | 1013.3 |
| 20260905060800 | 70 | 9 | 0.0 | 0.0 | 0.00 | 0.00 | 0.00 | 95 | 1013.3 |
| 20260905060333 | 70 | 9 | 0.0 | 2.0 | 0.00 | 0.00 | 0.00 | 95 | 1013.3 |
| 20260905060302 | 70 | 9 | 0.0 | 2.0 | 0.00 | 0.00 | 0.00 | 95 | 1013.3 |
| 20260905055804 | 70 | 4 | 0.0 | 0.0 | 0.00 | 0.00 | 0.00 | 94 | 1013.3 |
| 20260905055301 | 70 | 358 | 3.0 | 5.0 | 0.00 | 0.00 | 0.00 | 94 | 1013.2 |
| 20260905053408 | 71 | 47 | 0.0 | 6.0 | 0.00 | 0.00 | 0.00 | 93 | 1013.1 |
| 20260905053333 | 71 | 47 | 0.0 | 6.0 | 0.00 | 0.00 | 0.00 | 93 | 1013.1 |
| 20260905053300 | 71 | 47 | 0.0 | 6.0 | 0.00 | 0.00 | 0.00 | 93 | 1013.1 |
| 20260905050847 | 71 | 21 | 0.0 | 0.0 | 0.00 | 0.00 | 0.00 | 92 | 1012.9 |
| 20260905050800 | 71 | 21 | 0.0 | 0.0 | 0.00 | 0.00 | 0.00 | 92 | 1012.9 |
| 20260905050412 | 72 | 11 | 0.0 | 0.0 | 0.00 | 0.00 | 0.00 | 92 | 1012.9 |
| 20260905050335 | 72 | 11 | 0.0 | 0.0 | 0.00 | 0.00 | 0.00 | 92 | 1012.9 |
| 20260905050302 | 72 | 11 | 0.0 | 0.0 | 0.00 | 0.00 | 0.00 | 92 | 1012.9 |
| 20260905044800 | 72 | 112 | 3.0 | 7.0 | 0.00 | 0.00 | 0.00 | 91 | 1012.8 |
| 20260905043800 | 72 | 122 | 0.0 | 7.0 | 0.00 | 0.00 | 0.00 | 90 | 1012.6 |
| 20260905042809 | 73 | 78 | 5.0 | 7.0 | 0.00 | 0.00 | 0.00 | 89 | 1012.8 |
| 20260905042301 | 73 | 11 | 5.0 | 5.0 | 0.00 | 0.00 | 0.00 | 89 | 1013.0 |
| 20260905041332 | 73 | 56 | 5.0 | 7.0 | 0.00 | 0.00 | 0.00 | 88 | 1012.8 |
| 20260905041300 | 73 | 56 | 5.0 | 7.0 | 0.00 | 0.00 | 0.00 | 88 | 1012.8 |
| 20260905034800 | 74 | 9 | 3.0 | 8.0 | 0.00 | 0.00 | 0.00 | 86 | 1012.9 |
| 20260905034343 | 74 | 64 | 7.0 | 8.0 | 0.00 | 0.00 | 0.00 | 86 | 1012.8 |
| 20260905034311 | 74 | 64 | 7.0 | 8.0 | 0.00 | 0.00 | 0.00 | 86 | 1012.8 |
| 20260905033800 | 74 | 68 | 3.0 | 7.0 | 0.00 | 0.00 | 0.00 | 86 | 1012.8 |
| 20260905033329 | 75 | 102 | 0.0 | 5.0 | 0.00 | 0.00 | 0.00 | 85 | 1012.7 |
| 20260905031800 | 75 | 56 | 0.0 | 5.0 | 0.00 | 0.00 | 0.00 | 84 | 1012.7 |